[[{"header":{"parameterUnit":"m.s-1","parameterCategory":1,"la1":30.2991,"la2":30.254,"lo1":-89.0895,"lo2":-89.0444,"dy":0.0017,"dx":0.0017,"nx":28,"ny":28,"refTime":"2025-09-15T03:00:00:Z","depth":0,"parameterNumber":2,"parameterNumberName":"U-component_of_WINDS"},"data":[0,0,0,0,0,0,0,0,0,0,0,0,0,0,0,0,0,0,0,0,0,0,0,0,0,0,0,0,0,0,0,0,0,0,0,0,0,0,0,0,0,0,0,0,0,0,0,0,0,0,0,0,0,0,0,0,0,0,-3.2821,-3.2821,0,-3.2864,-3.2864,-3.2865,-3.2822,-3.282,-3.2818,-3.2817,-3.2861,-3.2863,-3.2866,0,0,0,0,0,0,0,0,0,0,0,0,0,-3.2702,-3.2704,-3.2821,-3.2821,-3.2822,-3.2864,-3.2864,-3.2865,-3.2822,-3.282,-3.2818,-3.2816,-3.286,-3.2863,-3.2866,0,0,0,0,0,0,0,0,0,0,0,0,0,-3.275,-3.2705,-3.282,-3.2805,-3.2804,-3.2864,-3.2865,-3.2865,-3.2823,-3.282,-3.2818,-3.2815,-3.2859,-3.2863,-3.2867,-3.2943,0,0,-3.2879,-3.2881,0,0,0,0,0,0,0,0,-3.2748,-3.2755,-3.2807,-3.2807,-3.2806,-3.2835,-3.2839,-3.2891,-3.2823,-3.2816,-3.2817,-3.2814,-3.2854,-3.2859,-3.2872,-3.2945,-3.2947,-3.288,-3.2882,-3.2884,-3.2885,0,0,0,0,0,0,0,-3.2744,-3.2752,-3.2838,-3.2808,-3.2807,-3.2797,-3.2801,-3.2848,-3.2849,-3.2816,-3.2813,-3.2819,-3.2853,-3.2868,-3.2873,-3.2948,-3.288,-3.2883,-3.2886,-3.2887,-3.3087,-3.309,0,0,0,0,0,0,-3.2742,-3.275,-3.2836,-3.2839,-3.277,-3.2801,-3.2806,-3.2828,-3.2848,-3.2849,-3.2821,-3.2817,-3.2863,-3.2868,-3.2874,-3.2965,-3.2884,-3.2888,-3.289,-3.3085,-3.3088,-3.3091,0,0,0,0,0,0,-3.274,-3.2751,-3.2835,-3.2794,-3.2804,-3.2806,-3.2831,-3.283,-3.2845,-3.2852,-3.2852,-3.2836,-3.2861,-3.2869,-3.2927,-3.2966,-3.289,-3.2894,-3.3081,-3.3086,-3.309,-3.3148,0,0,0,0,0,0,-3.2737,-3.275,-3.2778,-3.2795,-3.2806,-3.2886,-3.2834,-3.2833,-3.2852,-3.2847,-3.2866,-3.2867,-3.2859,-3.2921,-3.2931,-3.297,-3.2897,-3.3078,-3.3083,-3.3088,-3.3142,-3.3153,-3.3163,0,0,0,0,0,-3.2733,-3.2792,-3.278,-3.2791,-3.2842,-3.2888,-3.2895,-3.2885,-3.2856,-3.2885,-3.2889,-3.2866,-3.2961,-3.2927,-3.2938,-3.298,-3.3075,-3.3082,-3.3088,-3.3138,-3.3151,-3.3163,0,0,0,0,0,0,-3.2779,-3.2794,-3.278,-3.2847,-3.2867,-3.2881,-3.2916,-3.29,-3.2928,-3.2922,-3.2909,-3.2914,-3.2976,-3.2984,-3.2946,-3.3056,-3.3013,-3.3022,-3.3047,-3.306,-3.3071,-3.3066,-3.29,0,0,0,0,0,-3.2798,-3.2834,-3.2845,-3.2903,-3.2914,-3.2914,-3.2934,-3.2925,-3.2945,-3.2953,-3.2962,-3.2982,-3.3017,-3.3039,-3.3071,-3.3144,-3.3148,-3.3179,-3.3189,-3.3198,-3.3205,-3.3245,-3.3259,-3.3112,-3.3112,-3.3112,0,0,-3.2835,-3.2848,-3.2871,-3.2913,-3.2927,-3.2966,-3.2921,-3.2963,-3.2992,-3.2959,-3.3015,-3.3023,-3.3045,-3.3111,-3.314,-3.3119,-3.3247,-3.3206,-3.3212,-3.3215,-3.3253,-3.3267,-3.3279,-3.3117,-3.3116,-3.3115,0,0,-3.2923,-3.2936,-3.2986,-3.3002,-3.3025,-3.3025,-3.3038,-3.3055,-3.3059,-3.3115,-3.3092,-3.3127,-3.3186,-3.3203,-3.3219,-3.3318,-3.3298,-3.3329,-3.3382,-3.3422,-3.3433,-3.3444,-3.3479,-3.3491,-3.3337,-3.3337,-3.3337,0,-3.2966,-3.3023,-3.3014,-3.3059,-3.3078,-3.3052,-3.3103,-3.3119,-3.3151,-3.3166,-3.3142,-3.3218,-3.3231,-3.3301,-3.3325,-3.334,-3.3354,-3.3325,-3.3433,-3.3443,-3.3452,-3.3485,-3.3498,-3.334,-3.334,-3.334,-3.3339,0,-3.3075,-3.3116,-3.3154,-3.3186,-3.321,-3.3258,-3.3257,-3.3282,-3.3273,-3.3276,-3.3335,-3.335,-3.3385,-3.3402,-3.3393,-3.3472,-3.3458,-3.3434,-3.3391,-3.347,-3.3501,-3.3513,-3.3345,-3.3344,-3.3343,-3.3342,0,0,-3.319,-3.3219,-3.3233,-3.3248,-3.3274,-3.3305,-3.3353,-3.3388,-3.341,-3.3434,-3.3474,-3.3527,-3.3505,-3.3524,-3.3518,-3.3553,-3.363,-3.3524,-3.3525,-3.3543,-3.3719,-3.3736,-3.3751,-3.3618,-3.3621,-3.3623,-3.3717,0,-3.3278,-3.3359,-3.3355,-3.3432,-3.3469,-3.3448,-3.3489,-3.351,-3.3515,-3.3548,-3.3555,-3.3592,-3.3561,-3.3572,-3.3606,-3.3613,-3.3665,-3.3607,-3.3655,-3.3657,-3.3648,-3.3767,-3.3784,-3.3872,-3.3729,-3.3731,-3.3733,0,-3.339,-3.3419,-3.35,-3.3522,-3.3537,-3.3575,-3.3608,-3.364,-3.3664,-3.3665,-3.3689,-3.3677,-3.3726,-3.3684,-3.3752,-3.3713,-3.3733,-3.374,-3.3743,-3.3745,-3.3698,-3.3771,-3.39,-3.3913,-3.3752,-3.375,-3.3749,0,-3.3464,-3.3524,-3.3581,-3.3595,-3.3621,-3.3648,-3.3661,-3.3682,-3.3705,-3.3734,-3.3749,-3.3784,-3.3803,-3.3831,-3.383,-3.3799,-3.3899,-3.3857,-3.3902,-3.3902,-3.3921,-3.3919,-3.4053,-3.3937,-3.3937,-3.3937,-3.3937,0,-3.3561,-3.3612,-3.3615,-3.3649,-3.3706,-3.3701,-3.3757,-3.3767,-3.3787,-3.3824,-3.3808,-3.3843,-3.384,-3.3876,-3.3876,-3.3933,-3.3942,-3.3944,-3.3943,-3.3945,-3.3944,-3.3956,-3.3949,-3.394,-3.394,-3.3939,-3.3938,0,-3.3652,-3.3656,-3.3717,-3.3738,-3.3745,-3.3786,-3.3804,-3.3838,-3.3844,-3.3891,-3.3901,-3.391,-3.3952,-3.3954,-3.4002,-3.4002,-3.4071,-3.4064,-3.4063,-3.4061,-3.4105,-3.4101,-3.425,-3.4269,-3.4142,-3.4143,-3.4144,0,-3.3713,-3.3751,-3.3778,-3.3802,-3.3816,-3.3854,-3.3878,-3.3876,-3.3901,-3.3933,-3.3963,-3.4004,-3.4035,-3.4104,-3.4114,-3.4152,-3.4145,-3.4195,-3.415,-3.4151,-3.4144,-3.4141,-3.4145,-3.4202,-3.4204,-3.4205,-3.4206,0,-3.382,-3.3821,-3.3855,-3.3891,-3.392,-3.3948,-3.3974,-3.3995,-3.3996,-3.4026,-3.4069,-3.4094,-3.4144,-3.4185,-3.4222,-3.4235,-3.4221,-3.4221,-3.4233,-3.4233,-3.423,-3.4232,-3.4085,-3.4216,-3.4215,-3.4214,-3.4214,-3.4213,-3.3896,-3.393,-3.3955,-3.3994,-3.4014,-3.404,-3.4073,-3.4084,-3.4119,-3.416,-3.4158,-3.4205,-3.4231,-3.428,-3.4297,-3.4335,-3.4317,-3.4335,-3.4339,-3.4343,-3.4348,-3.4227,-3.4342,-3.4341,-3.4341,-3.4341,-3.4341,0,-3.4001,-3.4017,-3.4054,-3.4092,-3.4123,-3.4109,-3.4139,-3.4166,-3.4208,-3.4233,-3.4266,-3.4317,-3.4357,-3.4373,-3.4412,-3.444,-3.4434,-3.445,-3.4447,-3.445,-3.4361,-3.4346,-3.4454,-3.4454,-3.4454,-3.4454,-3.4454,-3.4454,-3.406,-3.4116,-3.4121,-3.4188,-3.4204,-3.425,-3.4268,-3.4293,-3.4313,-3.437,-3.4404,-3.4414,-3.4436,-3.4478,-3.4515,-3.4519,-3.4534,-3.4552,-3.4553,-3.4468,-3.4457,-3.4446,-3.4431,-3.4556,-3.4556,-3.4639,-3.464,-3.464]},{"header":{"parameterUnit":"m.s-1","parameterCategory":1,"la1":30.2991,"la2":30.254,"lo1":-89.0895,"lo2":-89.0444,"dy":0.0017,"dx":0.0017,"nx":28,"ny":28,"refTime":"2025-09-15T03:00:00:Z","depth":0,"parameterNumber":3,"parameterNumberName":"V-component_of_WINDS"},"data":[0,0,0,0,0,0,0,0,0,0,0,0,0,0,0,0,0,0,0,0,0,0,0,0,0,0,0,0,0,0,0,0,0,0,0,0,0,0,0,0,0,0,0,0,0,0,0,0,0,0,0,0,0,0,0,0,0,0,1.9515,1.9516,0,1.9599,1.96,1.96,1.9667,1.9668,1.9669,1.967,1.975,1.9751,1.9752,0,0,0,0,0,0,0,0,0,0,0,0,0,1.9408,1.9409,1.9515,1.9516,1.9517,1.9598,1.96,1.9601,1.9667,1.9668,1.9669,1.967,1.9749,1.9751,1.9753,0,0,0,0,0,0,0,0,0,0,0,0,0,1.9469,1.941,1.9515,1.956,1.9565,1.9598,1.96,1.9601,1.9667,1.9668,1.9669,1.967,1.9748,1.9751,1.9753,1.9746,0,0,1.976,1.9761,0,0,0,0,0,0,0,0,1.9465,1.9473,1.9553,1.9557,1.9563,1.9624,1.9591,1.9649,1.9667,1.9628,1.967,1.9671,1.9706,1.9712,1.9725,1.9749,1.9753,1.976,1.9761,1.9762,1.9763,0,0,0,0,0,0,0,1.9461,1.9469,1.9548,1.9554,1.956,1.9575,1.9585,1.9602,1.966,1.9632,1.9637,1.9646,1.9709,1.9723,1.9728,1.9754,1.976,1.9762,1.9763,1.9764,1.9775,1.9774,0,0,0,0,0,0,1.945,1.9465,1.9545,1.955,1.9516,1.9576,1.9587,1.9603,1.966,1.967,1.9645,1.9649,1.9719,1.9725,1.9731,1.9725,1.9762,1.9764,1.9765,1.9776,1.9774,1.9773,0,0,0,0,0,0,1.9448,1.9457,1.9542,1.9509,1.9521,1.9577,1.9594,1.9604,1.9618,1.9671,1.9681,1.9649,1.972,1.9728,1.9742,1.9729,1.9765,1.9767,1.9777,1.9775,1.9774,1.9714,0,0,0,0,0,0,1.9444,1.9456,1.9455,1.9509,1.9523,1.9553,1.9594,1.9605,1.9622,1.9628,1.9677,1.9686,1.9721,1.9738,1.9744,1.9732,1.9769,1.9778,1.9776,1.9774,1.9717,1.971,1.9704,0,0,0,0,0,1.944,1.9434,1.9454,1.9464,1.9523,1.9552,1.956,1.9602,1.9621,1.962,1.9653,1.9684,1.973,1.9739,1.9746,1.9735,1.9779,1.9777,1.9774,1.972,1.9711,1.9705,0,0,0,0,0,0,1.9375,1.9442,1.9465,1.9476,1.9508,1.9563,1.9563,1.9592,1.9618,1.9622,1.9672,1.9683,1.969,1.9715,1.9724,1.973,1.9758,1.9757,1.9714,1.9707,1.9701,1.9694,1.9771,0,0,0,0,0,1.9362,1.9381,1.9438,1.9442,1.9457,1.9507,1.9521,1.9551,1.9585,1.9599,1.9633,1.9664,1.9685,1.9697,1.972,1.9721,1.9732,1.9717,1.9711,1.9706,1.9703,1.9704,1.9698,1.9765,1.9765,1.9766,0,0,1.9335,1.9374,1.9383,1.943,1.9458,1.9475,1.9518,1.9534,1.9546,1.9601,1.9616,1.9642,1.9679,1.9686,1.9691,1.9706,1.9687,1.9703,1.9698,1.9699,1.9701,1.9694,1.9688,1.9764,1.9764,1.9764,0,0,1.9294,1.9326,1.9333,1.936,1.9403,1.9436,1.9437,1.9488,1.9508,1.9525,1.9565,1.958,1.9616,1.964,1.9657,1.9625,1.9653,1.9631,1.9597,1.9597,1.9591,1.9587,1.9573,1.9568,1.9629,1.9628,1.9628,0,1.9254,1.9283,1.9331,1.9345,1.9364,1.9416,1.9421,1.9445,1.9492,1.9502,1.952,1.9565,1.9594,1.9606,1.9598,1.9611,1.9612,1.9624,1.9589,1.9585,1.9581,1.9569,1.9564,1.9625,1.9626,1.9626,1.9626,0,1.9231,1.925,1.925,1.9295,1.9314,1.9324,1.9371,1.9384,1.9413,1.9444,1.9459,1.9495,1.9525,1.9531,1.9559,1.9547,1.9555,1.958,1.9608,1.9571,1.9559,1.9555,1.9621,1.9622,1.9623,1.9624,0,0,1.915,1.9223,1.9221,1.9242,1.9293,1.9307,1.9318,1.935,1.9358,1.9389,1.9398,1.9427,1.945,1.9469,1.95,1.9501,1.947,1.9525,1.9527,1.9512,1.9457,1.9437,1.943,1.949,1.949,1.9489,1.9453,0,1.9115,1.914,1.9183,1.9193,1.921,1.9259,1.9268,1.9299,1.9328,1.9346,1.9377,1.9396,1.9427,1.9438,1.9441,1.9473,1.9459,1.9477,1.9496,1.9497,1.9484,1.9425,1.9404,1.9368,1.945,1.9449,1.9449,0,1.9078,1.9107,1.9118,1.9167,1.9176,1.9183,1.9215,1.9232,1.9267,1.9288,1.9309,1.9343,1.9355,1.9383,1.9399,1.941,1.9421,1.9438,1.9438,1.9439,1.9469,1.9423,1.9358,1.9351,1.9443,1.9443,1.9444,0,1.9015,1.9057,1.9069,1.9085,1.9143,1.9146,1.917,1.9207,1.9223,1.9249,1.926,1.9287,1.9301,1.9321,1.936,1.9377,1.9371,1.9403,1.9387,1.9385,1.9381,1.9381,1.9315,1.9392,1.9392,1.9392,1.9392,0,1.897,1.8975,1.9041,1.9048,1.9053,1.9103,1.9107,1.9135,1.9167,1.9179,1.9224,1.9233,1.9286,1.9302,1.9333,1.934,1.9347,1.9362,1.937,1.9357,1.9355,1.9363,1.9365,1.9391,1.9391,1.9391,1.9392,0,1.89,1.8945,1.896,1.9014,1.9028,1.9029,1.9074,1.9082,1.9114,1.9128,1.9134,1.9184,1.9204,1.9246,1.9278,1.9299,1.9298,1.9313,1.9286,1.929,1.9271,1.9271,1.9206,1.9199,1.9283,1.9282,1.9281,0,1.8867,1.8872,1.8926,1.8938,1.8961,1.8979,1.8996,1.9044,1.9059,1.91,1.9101,1.9126,1.9148,1.9177,1.9215,1.9239,1.9254,1.9229,1.9257,1.9243,1.925,1.9249,1.9248,1.9222,1.9221,1.922,1.9219,0,1.8804,1.8826,1.8849,1.8878,1.8897,1.8923,1.895,1.8957,1.9012,1.9026,1.9048,1.9065,1.9098,1.912,1.915,1.9172,1.9203,1.9211,1.9208,1.9193,1.9176,1.9183,1.9266,1.9211,1.9212,1.9213,1.9213,1.9213,1.875,1.8756,1.8795,1.8818,1.8844,1.8869,1.8879,1.8912,1.8932,1.8963,1.8991,1.901,1.9044,1.9087,1.9108,1.9122,1.9138,1.9134,1.9133,1.9131,1.9124,1.9176,1.9128,1.9128,1.9129,1.9129,1.9129,0,1.8687,1.8715,1.8736,1.8774,1.8791,1.8822,1.8854,1.8866,1.8883,1.8913,1.8934,1.8958,1.898,1.902,1.9045,1.9049,1.9063,1.9053,1.9052,1.9056,1.911,1.9109,1.9041,1.9041,1.9041,1.9041,1.9041,1.9041,1.8656,1.8667,1.8693,1.8717,1.8744,1.8764,1.878,1.8802,1.8826,1.8852,1.8871,1.8898,1.8931,1.8959,1.898,1.8991,1.8996,1.8981,1.8996,1.9045,1.9053,1.9061,1.906,1.8982,1.8982,1.8941,1.8941,1.894]}]]